Location: Quebec
(46.8000°N, 71.2500°W)
Time: 11:54:00
(UTC-04:00)

ISS - Pass Details

Date: 08 October 2017
Orbit: 401 x 408 km, 51.6° (Epoch: 22 October)

Event Time Altitude Azimuth Distance (km) Brightness Sun altitude
Rises 19:49:59 0° 295° (WNW) 2,328 1.5 -17.8°
Reaches altitude 10° 19:52:05 10° 299° (WNW) 1,468 0.1 -18.1°
Maximum altitude 19:55:20 57° 20° (NNE) 486 -3.6 -18.7°
Enters shadow 19:55:31 56° 37° (NE) 492 -3.7 -18.7°
